Time,TemperatureF,DewpointF,PressureIn,WindDirection,WindDirectionDegrees,WindSpeedMPH,WindSpeedGustMPH,Humidity,HourlyPrecipIn,Conditions,Clouds,dailyrainin,SoftwareType,DateUTC
2013-02-21 00:01:00,31.0,28.0,-100.00,NE,56,2.0,4.0,89,-99.99,,,-99.99,,2013-02-21 08:01:00,
2013-02-21 00:11:00,31.0,28.0,-100.00,ENE,65,3.0,6.0,90,-99.99,,,-99.99,,2013-02-21 08:11:00,
2013-02-21 00:21:00,32.0,29.0,-100.00,ENE,78,4.0,6.0,89,-99.99,,,-99.99,,2013-02-21 08:21:00,
2013-02-21 00:31:00,32.0,29.0,-100.00,East,88,3.0,6.0,88,-99.99,,,-99.99,,2013-02-21 08:31:00,
2013-02-21 00:41:00,33.0,29.0,-100.00,East,85,4.0,6.0,86,-99.99,,,-99.99,,2013-02-21 08:41:00,
2013-02-21 00:51:00,32.0,28.0,-100.00,ENE,75,4.0,5.0,86,-99.99,,,-99.99,,2013-02-21 08:51:00,
2013-02-21 01:01:00,32.0,29.0,-100.00,ENE,63,3.0,3.0,87,-99.99,,,-99.99,,2013-02-21 09:01:00,
2013-02-21 01:11:00,31.0,28.0,-100.00,NE,35,1.0,3.0,88,-99.99,,,-99.99,,2013-02-21 09:11:00,
2013-02-21 01:22:00,31.0,28.0,-100.00,NE,55,2.0,4.0,90,-99.99,,,-99.99,,2013-02-21 09:22:00,
2013-02-21 01:31:00,31.0,28.0,-100.00,NE,36,2.0,3.0,90,-99.99,,,-99.99,,2013-02-21 09:31:00,
2013-02-21 01:41:00,32.0,29.0,-100.00,NE,42,2.0,4.0,90,-99.99,,,-99.99,,2013-02-21 09:41:00,
2013-02-21 01:51:00,32.0,29.0,-100.00,ENE,59,2.0,4.0,89,-99.99,,,-99.99,,2013-02-21 09:51:00,
2013-02-21 02:01:00,31.0,28.0,-100.00,ENE,66,3.0,6.0,89,-99.99,,,-99.99,,2013-02-21 10:01:00,
2013-02-21 02:11:00,31.0,28.0,-100.00,ENE,68,4.0,7.0,88,-99.99,,,-99.99,,2013-02-21 10:11:00,
2013-02-21 02:21:00,32.0,29.0,-100.00,ENE,68,5.0,7.0,88,-99.99,,,-99.99,,2013-02-21 10:21:00,
2013-02-21 02:31:00,32.0,29.0,-100.00,ENE,69,5.0,7.0,87,-99.99,,,-99.99,,2013-02-21 10:31:00,
2013-02-21 02:41:00,32.0,29.0,-100.00,ENE,69,5.0,7.0,87,-99.99,,,-99.99,,2013-02-21 10:41:00,
2013-02-21 02:51:00,32.0,29.0,-100.00,ENE,71,4.0,7.0,88,-99.99,,,-99.99,,2013-02-21 10:51:00,
2013-02-21 03:00:00,32.0,29.0,-100.00,ENE,71,4.0,7.0,88,-99.99,,,-99.99,,2013-02-21 11:00:00,
2013-02-21 03:11:00,32.0,29.0,-100.00,ENE,69,4.0,8.0,87,-99.99,,,-99.99,,2013-02-21 11:11:00,
2013-02-21 03:21:00,32.0,29.0,-100.00,ENE,69,6.0,8.0,87,-99.99,,,-99.99,,2013-02-21 11:21:00,
2013-02-21 03:31:00,33.0,29.0,-100.00,ENE,72,5.0,7.0,86,-99.99,,,-99.99,,2013-02-21 11:31:00,
2013-02-21 03:41:00,33.0,29.0,-100.00,ENE,77,5.0,6.0,86,-99.99,,,-99.99,,2013-02-21 11:41:00,
2013-02-21 03:51:00,33.0,29.0,-100.00,ENE,70,4.0,7.0,86,-99.99,,,-99.99,,2013-02-21 11:51:00,
2013-02-21 04:01:00,32.0,29.0,-100.00,ENE,70,5.0,7.0,88,-99.99,,,-99.99,,2013-02-21 12:01:00,
2013-02-21 04:11:00,32.0,29.0,-100.00,ENE,69,5.0,7.0,88,-99.99,,,-99.99,,2013-02-21 12:11:00,
2013-02-21 04:21:00,32.0,29.0,-100.00,ENE,65,5.0,7.0,88,-99.99,,,-99.99,,2013-02-21 12:21:00,
2013-02-21 04:32:00,32.0,29.0,-100.00,ENE,67,5.0,7.0,88,-99.99,,,-99.99,,2013-02-21 12:32:00,
2013-02-21 04:42:00,32.0,29.0,-100.00,ENE,67,5.0,7.0,88,-99.99,,,-99.99,,2013-02-21 12:42:00,
2013-02-21 04:52:00,32.0,29.0,-100.00,ENE,71,4.0,6.0,89,-99.99,,,-99.99,,2013-02-21 12:52:00,
2013-02-21 05:01:00,32.0,29.0,-100.00,ENE,65,3.0,6.0,88,-99.99,,,-99.99,,2013-02-21 13:01:00,
2013-02-21 05:12:00,33.0,30.0,-100.00,ENE,63,3.0,6.0,88,-99.99,,,-99.99,,2013-02-21 13:12:00,
2013-02-21 05:22:00,33.0,30.0,-100.00,ENE,64,4.0,6.0,87,-99.99,,,-99.99,,2013-02-21 13:22:00,
2013-02-21 05:31:00,33.0,30.0,-100.00,ENE,63,4.0,8.0,87,-99.99,,,-99.99,,2013-02-21 13:31:00,
2013-02-21 05:41:00,33.0,30.0,-100.00,ENE,63,4.0,8.0,87,-99.99,,,-99.99,,2013-02-21 13:41:00,
2013-02-21 05:51:00,33.0,30.0,-100.00,ENE,64,6.0,7.0,87,-99.99,,,-99.99,,2013-02-21 13:51:00,
2013-02-21 06:02:00,34.0,31.0,-100.00,ENE,68,5.0,7.0,87,-99.99,,,-99.99,,2013-02-21 14:02:00,
2013-02-21 06:11:00,34.0,31.0,-100.00,ENE,67,4.0,6.0,87,-99.99,,,-99.99,,2013-02-21 14:11:00,
2013-02-21 06:21:00,33.0,30.0,-100.00,ENE,65,4.0,6.0,87,-99.99,,,-99.99,,2013-02-21 14:21:00,
2013-02-21 06:31:00,34.0,31.0,-100.00,ENE,77,4.0,5.0,87,-99.99,,,-99.99,,2013-02-21 14:31:00,
2013-02-21 06:41:00,33.0,29.0,-100.00,ESE,120,3.0,4.0,86,-99.99,,,-99.99,,2013-02-21 14:41:00,
2013-02-21 06:52:00,34.0,31.0,-100.00,ESE,110,2.0,3.0,87,-99.99,,,-99.99,,2013-02-21 14:52:00,
2013-02-21 07:01:00,34.0,30.0,-100.00,ESE,104,1.0,5.0,85,-99.99,,,-99.99,,2013-02-21 15:01:00,
2013-02-21 07:12:00,34.0,30.0,-100.00,ENE,74,2.0,7.0,85,-99.99,,,-99.99,,2013-02-21 15:12:00,
2013-02-21 07:21:00,34.0,30.0,-100.00,ENE,74,3.0,8.0,84,-99.99,,,-99.99,,2013-02-21 15:21:00,
2013-02-21 07:31:00,34.0,30.0,-100.00,East,80,5.0,7.0,84,-99.99,,,-99.99,,2013-02-21 15:31:00,
2013-02-21 07:41:00,34.0,30.0,-100.00,East,90,3.0,7.0,84,-99.99,,,-99.99,,2013-02-21 15:41:00,
2013-02-21 07:51:00,35.0,30.0,-100.00,ENE,75,3.0,7.0,83,-99.99,,,-99.99,,2013-02-21 15:51:00,
2013-02-21 08:01:00,36.0,31.0,-100.00,East,79,4.0,5.0,83,-99.99,,,-99.99,,2013-02-21 16:01:00,
2013-02-21 08:12:00,37.0,32.0,-100.00,ESE,105,2.0,6.0,83,-99.99,,,-99.99,,2013-02-21 16:12:00,
2013-02-21 08:21:00,37.0,32.0,-100.00,East,97,3.0,5.0,82,-99.99,,,-99.99,,2013-02-21 16:21:00,
2013-02-21 08:31:00,37.0,32.0,-100.00,ESE,117,3.0,6.0,82,-99.99,,,-99.99,,2013-02-21 16:31:00,
2013-02-21 08:42:00,38.0,33.0,-100.00,ESE,114,3.0,6.0,82,-99.99,,,-99.99,,2013-02-21 16:42:00,
2013-02-21 08:51:00,38.0,33.0,-100.00,ESE,116,3.0,7.0,81,-99.99,,,-99.99,,2013-02-21 16:51:00,
2013-02-21 09:01:00,38.0,33.0,-100.00,ESE,116,3.0,7.0,81,-99.99,,,-99.99,,2013-02-21 17:01:00,
2013-02-21 09:11:00,38.0,33.0,-100.00,SE,128,3.0,6.0,81,-99.99,,,-99.99,,2013-02-21 17:11:00,
2013-02-21 09:21:00,39.0,34.0,-100.00,SE,133,4.0,7.0,81,-99.99,,,-99.99,,2013-02-21 17:21:00,
2013-02-21 09:32:00,39.0,34.0,-100.00,SE,134,3.0,5.0,82,-99.99,,,-99.99,,2013-02-21 17:32:00,
2013-02-21 09:41:00,39.0,34.0,-100.00,ESE,118,2.0,7.0,82,-99.99,,,-99.99,,2013-02-21 17:41:00,
2013-02-21 09:52:00,40.0,35.0,-100.00,SSE,147,3.0,5.0,81,-99.99,,,-99.99,,2013-02-21 17:52:00,
2013-02-21 10:01:00,40.0,35.0,-100.00,SSE,147,3.0,5.0,81,-99.99,,,-99.99,,2013-02-21 18:01:00,
2013-02-21 10:11:00,41.0,35.0,-100.00,SSE,157,1.0,7.0,80,-99.99,,,-99.99,,2013-02-21 18:11:00,
2013-02-21 10:22:00,41.0,36.0,-100.00,SSE,158,3.0,8.0,81,-99.99,,,-99.99,,2013-02-21 18:22:00,
2013-02-21 10:31:00,41.0,35.0,-100.00,South,183,3.0,6.0,80,-99.99,,,-99.99,,2013-02-21 18:31:00,
2013-02-21 10:42:00,41.0,35.0,-100.00,South,183,3.0,6.0,80,-99.99,,,-99.99,,2013-02-21 18:42:00,
2013-02-21 10:51:00,43.0,36.0,-100.00,South,188,4.0,9.0,77,-99.99,,,-99.99,,2013-02-21 18:51:00,
2013-02-21 11:01:00,43.0,35.0,-100.00,SSW,196,3.0,8.0,74,-99.99,,,-99.99,,2013-02-21 19:01:00,
2013-02-21 11:11:00,43.0,36.0,-100.00,South,190,4.0,10.0,76,-99.99,,,-99.99,,2013-02-21 19:11:00,
2013-02-21 11:21:00,43.0,36.0,-100.00,SSW,194,5.0,14.0,76,-99.99,,,-99.99,,2013-02-21 19:21:00,
2013-02-21 11:31:00,43.0,35.0,-100.00,South,178,5.0,9.0,74,-99.99,,,-99.99,,2013-02-21 19:31:00,
2013-02-21 11:41:00,44.0,36.0,-100.00,SSW,192,5.0,10.0,73,-99.99,,,-99.99,,2013-02-21 19:41:00,
2013-02-21 11:51:00,43.0,35.0,-100.00,South,188,5.0,9.0,74,-99.99,,,-99.99,,2013-02-21 19:51:00,
2013-02-21 12:01:00,43.0,36.0,-100.00,SSW,199,5.0,9.0,75,-99.99,,,-99.99,,2013-02-21 20:01:00,
2013-02-21 12:11:00,43.0,36.0,-100.00,SSE,168,4.0,6.0,76,-99.99,,,-99.99,,2013-02-21 20:11:00,
2013-02-21 12:21:00,44.0,36.0,-100.00,South,179,2.0,7.0,73,-99.99,,,-99.99,,2013-02-21 20:21:00,
2013-02-21 12:31:00,43.0,36.0,-100.00,South,182,3.0,7.0,75,-99.99,,,-99.99,,2013-02-21 20:31:00,
2013-02-21 12:41:00,43.0,35.0,-100.00,SSW,198,3.0,7.0,73,-99.99,,,-99.99,,2013-02-21 20:41:00,
2013-02-21 12:52:00,43.0,35.0,-100.00,SSW,198,3.0,5.0,72,-99.99,,,-99.99,,2013-02-21 20:52:00,
2013-02-21 13:02:00,43.0,35.0,-100.00,WSW,255,2.0,5.0,73,-99.99,,,-99.99,,2013-02-21 21:02:00,
2013-02-21 13:11:00,42.0,36.0,-100.00,WSW,249,3.0,12.0,79,-99.99,,,-99.99,,2013-02-21 21:11:00,
2013-02-21 13:21:00,41.0,37.0,-100.00,WSW,241,7.0,8.0,87,-99.99,,,-99.99,,2013-02-21 21:21:00,
2013-02-21 13:31:00,41.0,37.0,-100.00,WSW,238,5.0,7.0,86,-99.99,,,-99.99,,2013-02-21 21:31:00,
2013-02-21 13:41:00,41.0,36.0,-100.00,SSE,152,3.0,5.0,83,-99.99,,,-99.99,,2013-02-21 21:41:00,
2013-02-21 13:51:00,41.0,37.0,-100.00,SE,145,2.0,11.0,86,-99.99,,,-99.99,,2013-02-21 21:51:00,
2013-02-21 14:01:00,41.0,38.0,-100.00,SE,138,5.0,10.0,88,-99.99,,,-99.99,,2013-02-21 22:01:00,
2013-02-21 14:11:00,41.0,37.0,-100.00,SE,140,5.0,11.0,85,-99.99,,,-99.99,,2013-02-21 22:11:00,
2013-02-21 14:21:00,42.0,37.0,-100.00,SE,133,6.0,9.0,83,-99.99,,,-99.99,,2013-02-21 22:21:00,
2013-02-21 14:31:00,43.0,38.0,-100.00,SE,135,5.0,7.0,83,-99.99,,,-99.99,,2013-02-21 22:31:00,
2013-02-21 14:41:00,42.0,37.0,-100.00,SSE,167,3.0,8.0,81,-99.99,,,-99.99,,2013-02-21 22:41:00,
2013-02-21 14:52:00,43.0,38.0,-100.00,SSW,209,2.0,4.0,81,-99.99,,,-99.99,,2013-02-21 22:52:00,
2013-02-21 15:01:00,43.0,38.0,-100.00,SSW,209,2.0,4.0,81,-99.99,,,-99.99,,2013-02-21 23:01:00,
2013-02-21 15:11:00,43.0,38.0,-100.00,SSE,163,2.0,7.0,81,-99.99,,,-99.99,,2013-02-21 23:11:00,
2013-02-21 15:21:00,43.0,38.0,-100.00,SSE,154,4.0,6.0,81,-99.99,,,-99.99,,2013-02-21 23:21:00,
2013-02-21 15:31:00,43.0,38.0,-100.00,SSE,157,2.0,5.0,83,-99.99,,,-99.99,,2013-02-21 23:31:00,
2013-02-21 15:41:00,42.0,38.0,-100.00,NNW,335,2.0,6.0,85,-99.99,,,-99.99,,2013-02-21 23:41:00,
2013-02-21 15:52:00,40.0,37.0,-100.00,NNE,28,4.0,8.0,90,-99.99,,,-99.99,,2013-02-21 23:52:00,
2013-02-21 16:01:00,40.0,37.0,-100.00,NNE,28,4.0,8.0,90,-99.99,,,-99.99,,2013-02-22 00:01:00,
2013-02-21 16:11:00,40.0,37.0,-100.00,NE,41,5.0,9.0,90,-99.99,,,-99.99,,2013-02-22 00:11:00,
2013-02-21 16:21:00,39.0,36.0,-100.00,NE,48,6.0,9.0,89,-99.99,,,-99.99,,2013-02-22 00:21:00,
2013-02-21 16:31:00,39.0,36.0,-100.00,NE,51,6.0,9.0,88,-99.99,,,-99.99,,2013-02-22 00:31:00,
2013-02-21 16:41:00,39.0,36.0,-100.00,NE,54,6.0,9.0,89,-99.99,,,-99.99,,2013-02-22 00:41:00,
2013-02-21 16:51:00,39.0,37.0,-100.00,ENE,59,6.0,8.0,92,-99.99,,,-99.99,,2013-02-22 00:51:00,
2013-02-21 17:01:00,39.0,37.0,-100.00,ENE,73,5.0,8.0,92,-99.99,,,-99.99,,2013-02-22 01:01:00,
2013-02-21 17:11:00,39.0,37.0,-100.00,East,80,5.0,8.0,91,-99.99,,,-99.99,,2013-02-22 01:11:00,
2013-02-21 17:21:00,39.0,37.0,-100.00,East,82,5.0,5.0,91,-99.99,,,-99.99,,2013-02-22 01:21:00,
2013-02-21 17:32:00,39.0,37.0,-100.00,East,86,3.0,7.0,92,-99.99,,,-99.99,,2013-02-22 01:32:00,
2013-02-21 17:42:00,39.0,37.0,-100.00,East,81,4.0,8.0,92,-99.99,,,-99.99,,2013-02-22 01:42:00,
2013-02-21 17:51:00,39.0,37.0,-100.00,ESE,102,5.0,8.0,91,-99.99,,,-99.99,,2013-02-22 01:51:00,
2013-02-21 18:01:00,39.0,37.0,-100.00,ESE,116,5.0,8.0,93,-99.99,,,-99.99,,2013-02-22 02:01:00,
2013-02-21 18:11:00,38.0,36.0,-100.00,ESE,120,4.0,8.0,94,-99.99,,,-99.99,,2013-02-22 02:11:00,
2013-02-21 18:21:00,38.0,37.0,-100.00,South,171,5.0,6.0,95,-99.99,,,-99.99,,2013-02-22 02:21:00,
2013-02-21 18:31:00,37.0,36.0,-100.00,South,181,2.0,2.0,96,-99.99,,,-99.99,,2013-02-22 02:31:00,
2013-02-21 18:42:00,37.0,36.0,-100.00,ESE,118,1.0,6.0,96,-99.99,,,-99.99,,2013-02-22 02:42:00,
2013-02-21 18:52:00,37.0,36.0,-100.00,ESE,104,3.0,7.0,97,-99.99,,,-99.99,,2013-02-22 02:52:00,
2013-02-21 19:01:00,37.0,36.0,-100.00,East,96,4.0,8.0,97,-99.99,,,-99.99,,2013-02-22 03:01:00,
2013-02-21 19:11:00,37.0,36.0,-100.00,East,101,4.0,6.0,97,-99.99,,,-99.99,,2013-02-22 03:11:00,
2013-02-21 19:21:00,37.0,36.0,-100.00,East,89,4.0,8.0,97,-99.99,,,-99.99,,2013-02-22 03:21:00,
2013-02-21 19:31:00,36.0,35.0,-100.00,ENE,76,4.0,5.0,95,-99.99,,,-99.99,,2013-02-22 03:31:00,
2013-02-21 19:41:00,36.0,34.0,-100.00,ENE,65,3.0,6.0,94,-99.99,,,-99.99,,2013-02-22 03:41:00,
2013-02-21 19:51:00,36.0,34.0,-100.00,NNE,26,4.0,4.0,94,-99.99,,,-99.99,,2013-02-22 03:51:00,
2013-02-21 20:01:00,35.0,33.0,-100.00,ENE,65,3.0,7.0,93,-99.99,,,-99.99,,2013-02-22 04:01:00,
2013-02-21 20:11:00,36.0,34.0,-100.00,ENE,63,4.0,9.0,94,-99.99,,,-99.99,,2013-02-22 04:11:00,
2013-02-21 20:21:00,36.0,34.0,-100.00,ENE,62,6.0,8.0,91,-99.99,,,-99.99,,2013-02-22 04:21:00,
2013-02-21 20:31:00,36.0,33.0,-100.00,ENE,61,5.0,6.0,90,-99.99,,,-99.99,,2013-02-22 04:31:00,
2013-02-21 20:42:00,37.0,34.0,-100.00,ENE,57,4.0,5.0,88,-99.99,,,-99.99,,2013-02-22 04:42:00,
2013-02-21 20:51:00,36.0,33.0,-100.00,NE,43,3.0,4.0,88,-99.99,,,-99.99,,2013-02-22 04:51:00,
2013-02-21 21:01:00,37.0,33.0,-100.00,NE,39,3.0,5.0,84,-99.99,,,-99.99,,2013-02-22 05:01:00,
2013-02-21 21:11:00,37.0,32.0,-100.00,NNE,32,3.0,4.0,83,-99.99,,,-99.99,,2013-02-22 05:11:00,
2013-02-21 21:22:00,37.0,32.0,-100.00,NNE,33,2.0,4.0,81,-99.99,,,-99.99,,2013-02-22 05:22:00,
2013-02-21 21:32:00,38.0,32.0,-100.00,NNE,28,3.0,4.0,79,-99.99,,,-99.99,,2013-02-22 05:32:00,
2013-02-21 21:41:00,39.0,32.0,-100.00,NNE,12,2.0,4.0,75,-99.99,,,-99.99,,2013-02-22 05:41:00,
2013-02-21 21:52:00,38.0,31.0,-100.00,WNW,295,3.0,5.0,76,-99.99,,,-99.99,,2013-02-22 05:52:00,
2013-02-21 22:01:00,36.0,32.0,-100.00,North,6,3.0,4.0,84,-99.99,,,-99.99,,2013-02-22 06:01:00,
2013-02-21 22:11:00,36.0,32.0,-100.00,NNE,26,2.0,4.0,86,-99.99,,,-99.99,,2013-02-22 06:11:00,
2013-02-21 22:21:00,37.0,33.0,-100.00,NNE,12,3.0,4.0,84,-99.99,,,-99.99,,2013-02-22 06:21:00,
2013-02-21 22:31:00,34.0,32.0,-100.00,ENE,73,2.0,3.0,91,-99.99,,,-99.99,,2013-02-22 06:31:00,
2013-02-21 22:42:00,34.0,32.0,-100.00,ENE,73,2.0,3.0,91,-99.99,,,-99.99,,2013-02-22 06:42:00,
2013-02-21 22:51:00,34.0,32.0,-100.00,East,82,2.0,2.0,92,-99.99,,,-99.99,,2013-02-22 06:51:00,
2013-02-21 23:01:00,35.0,33.0,-100.00,NW,318,1.0,2.0,91,-99.99,,,-99.99,,2013-02-22 07:01:00,
2013-02-21 23:11:00,36.0,33.0,-100.00,North,10,1.0,3.0,88,-99.99,,,-99.99,,2013-02-22 07:11:00,
2013-02-21 23:21:00,37.0,33.0,-100.00,NE,34,2.0,4.0,84,-99.99,,,-99.99,,2013-02-22 07:21:00,
2013-02-21 23:31:00,35.0,31.0,-100.00,ENE,58,3.0,3.0,86,-99.99,,,-99.99,,2013-02-22 07:31:00,
2013-02-21 23:42:00,34.0,31.0,-100.00,East,94,2.0,3.0,88,-99.99,,,-99.99,,2013-02-22 07:42:00,
2013-02-21 23:51:00,35.0,31.0,-100.00,NE,46,1.0,3.0,85,-99.99,,,-99.99,,2013-02-22 07:51:00,